KB3FKJ Weather Reports


time (UTC)temp
C
wind
direction
speed
KPH
gust
KPH
rain 1hr
cm
rain 24hr
cm
rain mn
cm
humidity
%
barometer
mb
20260503213406 13 73 3.2 12.9 0.00 0.00 0.00 40 1012.2
20260503212903 13 273 3.2 6.4 0.00 0.00 0.00 39 1011.9
20260503212401 13 298 9.7 14.5 0.00 0.00 0.00 39 1012.1
20260503211857 13 274 9.7 14.5 0.00 0.00 0.00 38 1011.9
20260503211354 13 251 3.2 11.3 0.00 0.00 0.00 39 1012.0
20260503210849 13 264 14.5 17.7 0.00 0.00 0.00 37 1011.9
20260503210347 13 193 8.0 22.5 0.00 0.00 0.00 39 1012.0
20260503205842 13 238 4.8 11.3 0.00 0.00 0.00 38 1011.9
20260503205339 13 275 9.7 14.5 0.00 0.00 0.00 38 1012.0
20260503204835 15 221 8.0 16.1 0.00 0.00 0.00 38 1012.0
20260503204332 13 212 3.2 9.7 0.00 0.00 0.00 39 1012.0
20260503203829 15 214 6.4 11.3 0.00 0.00 0.00 38 1012.0
20260503203327 14 78 1.6 16.1 0.00 0.00 0.00 39 1012.3
20260503202824 13 159 1.6 9.7 0.00 0.00 0.00 41 1012.2
20260503202322 13 216 8.0 16.1 0.00 0.00 0.00 39 1012.3
20260503201820 14 250 9.7 12.9 0.00 0.00 0.00 38 1012.6
20260503201316 13 258 11.3 14.5 0.00 0.00 0.00 38 1012.3
20260503200814 13 19 6.4 17.7 0.00 0.00 0.00 38 1012.3
20260503200310 13 247 1.6 16.1 0.00 0.00 0.00 40 1012.6
20260503195807 13 232 8.0 11.3 0.00 0.00 0.00 37 1012.6
20260503195304 13 295 8.0 16.1 0.00 0.00 0.00 38 1012.5
20260503194801 13 235 14.5 17.7 0.00 0.00 0.00 38 1012.5
20260503194256 12 273 11.3 14.5 0.00 0.00 0.00 38 1012.6
20260503193753 13 288 11.3 17.7 0.00 0.00 0.00 38 1012.6
20260503193249 13 282 8.0 12.9 0.00 0.00 0.00 38 1012.6
20260503192739 13 290 11.3 14.5 0.00 0.00 0.00 38 1012.8
20260503192234 14 289 12.9 14.5 0.00 0.00 0.00 36 1012.8
20260503191732 13 280 8.0 17.7 0.00 0.00 0.00 37 1013.0
20260503191229 13 232 12.9 16.1 0.00 0.00 0.00 40 1012.8
20260503190726 13 101 6.4 16.1 0.00 0.00 0.00 39 1013.1
20260503190222 13 171 3.2 14.5 0.00 0.00 0.00 41 1013.1
20260503185720 13 244 14.5 20.9 0.00 0.00 0.00 38 1013.2
20260503185215 13 237 9.7 12.9 0.00 0.00 0.00 39 1013.1
20260503184710 13 263 6.4 12.9 0.00 0.00 0.00 39 1013.2
20260503184206 12 240 8.0 9.7 0.00 0.00 0.00 39 1013.3
20260503183703 13 304 9.7 11.3 0.00 0.00 0.00 39 1013.3
20260503183200 12 256 6.4 12.9 0.00 0.00 0.00 41 1013.3
20260503182658 12 272 9.7 12.9 0.00 0.00 0.00 40 1013.3
20260503182156 12 239 4.8 12.9 0.00 0.00 0.00 46 1013.5
20260503181652 13 131 1.6 12.9 0.00 0.00 0.00 46 1013.4
20260503181149 12 238 3.2 22.5 0.00 0.00 0.00 40 1013.5
20260503180646 13 229 12.9 16.1 0.00 0.00 0.00 41 1013.4
20260503180145 12 290 1.6 14.5 0.00 0.00 0.00 45 1013.3
20260503175641 11 251 11.3 14.5 0.00 0.00 0.00 41 1013.4
20260503175138 11 288 3.2 12.9 0.00 0.00 0.00 45 1013.6
20260503174635 12 210 8.0 24.1 0.00 0.00 0.00 41 1013.6
20260503174132 12 302 8.0 12.9 0.00 0.00 0.00 43 1013.6
20260503173627 11 307 14.5 20.9 0.00 0.00 0.00 41 1013.7
20260503173124 11 232 9.7 22.5 0.00 0.00 0.00 40 1013.6
20260503172621 11 200 8.0 12.9 0.00 0.00 0.00 41 1013.8
20260503172118 12 159 4.8 14.5 0.00 0.00 0.00 45 1013.8
20260503171615 12 251 4.8 11.3 0.00 0.00 0.00 43 1013.5
20260503171112 11 273 11.3 14.5 0.00 0.00 0.00 44 1013.6
20260503170609 11 213 4.8 12.9 0.00 0.00 0.00 44 1013.9
20260503170105 11 230 6.4 16.1 0.00 0.00 0.00 43 1013.8
20260503151000 9 246 9.7 12.9 0.00 0.00 0.00 46 1014.9
20260503150457 8 299 6.4 17.7 0.00 0.00 0.00 50 1015.0
20260503131350 6 272 6.4 14.5 0.00 0.00 0.00 61 1015.4
20260503130847 6 245 9.7 14.5 0.00 0.00 0.00 60 1015.4
20260503130345 6 240 4.8 9.7 0.00 0.00 0.00 61 1015.5
20260503110744 1 136 1.6 3.2 0.00 0.00 0.00 74 1014.9
20260503110241 1 166 0.0 1.6 0.00 0.00 0.00 74 1014.8
20260503100207 1 274 3.2 4.8 0.00 0.00 0.00 75 1014.0
20260503090131 2 279 6.4 9.7 0.00 0.00 0.00 71 1013.9
20260503081602 2 133 0.0 1.6 0.00 0.00 0.00 73 1013.7
20260503081100 2 203 3.2 3.2 0.00 0.00 0.00 72 1013.7
20260503080555 2 209 3.2 4.8 0.00 0.00 0.00 72 1013.5
20260503072529 2 141 1.6 1.6 0.00 0.00 0.00 71 1013.5
20260503072026 2 294 6.4 9.7 0.00 0.00 0.00 70 1013.5
20260503071523 2 151 1.6 3.2 0.00 0.00 0.00 70 1013.4
20260503071020 2 274 4.8 4.8 0.00 0.00 0.00 69 1013.5
20260503070516 2 130 1.6 3.2 0.00 0.00 0.00 68 1013.3
20260503054934 2 197 1.6 4.8 0.00 0.00 0.00 68 1013.6
20260503054430 2 300 3.2 4.8 0.00 0.00 0.00 69 1013.6
20260503053928 2 151 0.0 1.6 0.00 0.00 0.00 69 1013.5
20260503053426 3 119 0.0 0.0 0.00 0.00 0.00 69 1013.4
20260503052922 3 127 0.0 1.6 0.00 0.00 0.00 67 1013.7
20260503052420 3 115 0.0 1.6 0.00 0.00 0.00 68 1013.8
20260503051916 3 122 0.0 1.6 0.00 0.00 0.00 68 1013.7
20260503051412 3 151 3.2 3.2 0.00 0.00 0.00 66 1013.7
20260503050909 3 164 1.6 3.2 0.00 0.00 0.00 66 1013.7
20260503050405 3 124 0.0 1.6 0.00 0.00 0.00 68 1013.5
20260503045903 3 123 0.0 1.6 0.00 0.00 0.00 66 1013.6
20260503045400 3 138 1.6 1.6 0.00 0.00 0.00 67 1013.6
20260503044856 3 129 0.0 1.6 0.00 0.00 0.00 68 1013.7
20260503044354 3 132 0.0 1.6 0.00 0.00 0.00 67 1013.8
20260503043851 3 123 0.0 0.0 0.00 0.00 0.00 68 1013.7
20260503043348 3 116 0.0 0.0 0.00 0.00 0.00 67 1013.8
20260503042844 3 119 0.0 0.0 0.00 0.00 0.00 66 1013.7
20260503042340 3 143 1.6 4.8 0.00 0.00 0.00 64 1013.8
20260503041836 3 138 1.6 3.2 0.00 0.00 0.00 66 1013.7
20260503041334 3 125 0.0 1.6 0.00 0.00 0.00 67 1013.8
20260503040832 4 118 0.0 0.0 0.00 0.00 0.00 64 1013.8
20260503040329 4 243 3.2 4.8 0.00 0.00 0.00 63 1013.7
20260503035826 4 163 3.2 3.2 0.00 0.13 0.13 64 1013.7
20260503035323 4 115 0.0 1.6 0.00 0.13 0.13 65 1013.8
20260503034820 4 126 0.0 0.0 0.00 0.13 0.13 66 1014.1
20260503034317 4 120 0.0 1.6 0.00 0.13 0.13 65 1014.0
20260503033814 4 144 1.6 1.6 0.00 0.13 0.13 66 1013.9
20260503033312 4 130 0.0 1.6 0.00 0.13 0.13 66 1013.9
20260503032810 4 119 0.0 1.6 0.00 0.13 0.13 66 1014.1
20260503032309 4 121 0.0 1.6 0.00 0.13 0.13 67 1014.0
20260503031805 5 157 0.0 1.6 0.00 0.13 0.13 67 1014.1
20260503031303 5 273 6.4 6.4 0.00 0.13 0.13 65 1014.0
20260503030759 5 125 0.0 3.2 0.00 0.13 0.13 65 1014.2
20260503030256 5 170 1.6 1.6 0.00 0.13 0.13 67 1014.1
20260503025752 5 137 1.6 1.6 0.00 0.13 0.13 66 1014.0
20260503025250 5 226 1.6 6.4 0.00 0.13 0.13 68 1014.0
20260503024747 5 125 1.6 4.8 0.00 0.13 0.13 67 1014.1
20260503024244 5 121 0.0 3.2 0.00 0.13 0.13 66 1014.2
20260503023740 5 288 4.8 4.8 0.00 0.13 0.13 66 1014.1
20260503023238 5 146 1.6 1.6 0.00 0.13 0.13 68 1014.2
20260503022734 5 141 0.0 0.0 0.00 0.13 0.13 67 1014.3
20260503022234 5 127 0.0 1.6 0.00 0.13 0.13 68 1014.2
20260503021731 5 236 3.2 9.7 0.00 0.13 0.13 68 1014.1
20260503021226 5 116 1.6 3.2 0.00 0.13 0.13 69 1014.2
20260503020725 5 266 4.8 9.7 0.00 0.13 0.13 68 1014.0
20260503020222 5 220 4.8 6.4 0.00 0.13 0.13 69 1014.0
20260503015718 5 261 3.2 4.8 0.00 0.13 0.13 68 1014.0
20260503015215 5 248 3.2 4.8 0.00 0.13 0.13 69 1014.0
20260503014711 5 161 1.6 4.8 0.00 0.13 0.13 73 1013.8
20260503014209 5 250 4.8 6.4 0.00 0.13 0.13 73 1013.9
20260503013706 5 135 0.0 4.8 0.00 0.13 0.13 74 1013.8
20260503013204 5 141 1.6 4.8 0.00 0.13 0.13 74 1013.9
20260503012701 5 142 3.2 4.8 0.00 0.13 0.13 74 1013.8
20260503012158 5 186 3.2 3.2 0.00 0.13 0.13 74 1013.9
20260503011654 5 156 1.6 1.6 0.00 0.13 0.13 73 1013.9
20260503011151 5 174 3.2 3.2 0.00 0.13 0.13 72 1013.7
20260503010647 5 128 3.2 6.4 0.00 0.13 0.13 72 1013.6
20260503010145 5 141 1.6 3.2 0.00 0.13 0.13 74 1013.5
20260503005642 5 242 3.2 3.2 0.00 0.13 0.13 75 1013.6
20260503005139 5 166 3.2 4.8 0.00 0.13 0.13 75 1013.5
20260503004635 5 150 0.0 1.6 0.00 0.13 0.13 76 1013.4
20260503004134 5 155 1.6 6.4 0.00 0.13 0.13 75 1013.4
20260503003630 5 228 3.2 4.8 0.00 0.13 0.13 75 1013.4
20260503003127 5 193 1.6 1.6 0.00 0.13 0.13 75 1013.2
20260503002624 5 156 3.2 4.8 0.00 0.13 0.13 75 1013.2
20260503002121 5 74 1.6 4.8 0.00 0.13 0.13 74 1013.2
20260503001617 5 172 1.6 3.2 0.00 0.13 0.13 74 1013.5
20260503001114 5 157 1.6 3.2 0.00 0.13 0.13 73 1013.3
20260503000612 5 159 1.6 3.2 0.00 0.13 0.13 73 1013.4
20260503000109 5 226 3.2 6.4 0.00 0.13 0.13 73 1013.4
20260502235605 5 177 1.6 3.2 0.00 0.13 0.13 73 1013.3
20260502235103 5 249 3.2 4.8 0.00 0.13 0.13 72 1013.4
20260502234559 5 135 1.6 3.2 0.00 0.13 0.13 73 1013.3
20260502234057 6 139 1.6 4.8 0.00 0.13 0.13 72 1013.2
20260502233557 6 156 1.6 3.2 0.00 0.13 0.13 72 1013.1
20260502233055 6 238 4.8 6.4 0.00 0.13 0.13 71 1013.2
20260502232550 6 132 1.6 4.8 0.00 0.13 0.13 71 1013.3
20260502232048 6 102 1.6 3.2 0.00 0.13 0.13 71 1013.0
20260502231545 6 169 3.2 3.2 0.00 0.13 0.13 72 1013.2
20260502231043 6 123 1.6 3.2 0.00 0.13 0.13 73 1013.0
20260502230541 6 117 0.0 3.2 0.00 0.13 0.13 73 1013.0
20260502230039 6 87 1.6 9.7 0.00 0.13 0.13 72 1013.0
20260502225534 6 237 1.6 6.4 0.00 0.13 0.13 71 1013.0
20260502225032 6 230 3.2 4.8 0.00 0.13 0.13 71 1013.1
20260502224528 6 192 1.6 4.8 0.00 0.13 0.13 72 1013.0
20260502224025 6 133 1.6 3.2 0.00 0.13 0.13 71 1013.1
20260502223523 6 116 0.0 1.6 0.00 0.13 0.13 71 1012.9
20260502223021 6 136 1.6 1.6 0.00 0.13 0.13 70 1012.9
20260502222518 6 142 1.6 3.2 0.00 0.13 0.13 70 1012.9
20260502222014 6 207 3.2 4.8 0.00 0.13 0.13 69 1012.8
20260502221509 6 146 1.6 4.8 0.00 0.13 0.13 70 1013.1
20260502221007 6 134 1.6 1.6 0.00 0.13 0.13 71 1012.9
20260502220502 7 109 0.0 1.6 0.00 0.13 0.13 70 1012.9
20260502215959 7 117 0.0 1.6 0.00 0.13 0.13 72 1013.0
20260502215457 6 264 3.2 4.8 0.00 0.13 0.13 71 1013.1
20260502214953 6 90 1.6 4.8 0.00 0.13 0.13 73 1012.8
20260502214450 6 170 1.6 4.8 0.00 0.13 0.13 72 1013.0
20260502213948 6 106 0.0 6.4 0.00 0.13 0.13 72 1012.8